Time,TemperatureF,DewpointF,PressureIn,WindDirection,WindDirectionDegrees,WindSpeedMPH,WindSpeedGustMPH,Humidity,HourlyPrecipIn,Conditions,Clouds,dailyrainin,SoftwareType,DateUTC
2013-03-01 00:00:00,28.9,25.2,30.02,NNW,328,3.0,4.0,86,0.00,,,0.00,Wunderground v.1.15,2013-03-01 05:00:00,
2013-03-01 00:05:00,28.8,25.1,30.02,NW,323,2.0,8.0,86,0.00,,,0.00,Wunderground v.1.15,2013-03-01 05:05:00,
2013-03-01 00:06:00,28.8,25.1,30.02,NNW,333,4.0,9.0,86,0.00,,,0.00,Wunderground v.1.15,2013-03-01 05:06:00,
2013-03-01 00:11:00,28.8,25.1,30.02,North,349,3.0,5.0,86,0.00,,,0.00,Wunderground v.1.15,2013-03-01 05:11:00,
2013-03-01 00:16:00,28.7,25.0,30.02,NW,315,4.0,8.0,86,0.00,,,0.00,Wunderground v.1.15,2013-03-01 05:16:00,
2013-03-01 00:21:00,28.7,25.3,30.02,NNW,340,9.0,9.0,87,0.00,,,0.00,Wunderground v.1.15,2013-03-01 05:21:00,
2013-03-01 00:26:00,28.5,24.8,30.02,NW,317,8.0,10.0,86,0.00,,,0.00,Wunderground v.1.15,2013-03-01 05:26:00,
2013-03-01 00:31:00,28.5,25.1,30.02,NNW,346,4.0,10.0,87,0.00,,,0.00,Wunderground v.1.15,2013-03-01 05:31:00,
2013-03-01 00:36:00,28.4,25.0,30.02,NNW,333,10.0,12.0,87,0.00,,,0.00,Wunderground v.1.15,2013-03-01 05:36:00,
2013-03-01 00:41:00,28.3,25.2,30.02,NNW,343,4.0,7.0,88,0.00,,,0.00,Wunderground v.1.15,2013-03-01 05:41:00,
2013-03-01 00:46:00,28.3,25.2,30.02,North,355,6.0,12.0,88,0.00,,,0.00,Wunderground v.1.15,2013-03-01 05:46:00,
2013-03-01 00:51:00,28.3,25.2,30.02,NW,323,2.0,7.0,88,0.00,,,0.00,Wunderground v.1.15,2013-03-01 05:51:00,
2013-03-01 00:56:00,28.3,25.2,30.02,NW,321,6.0,9.0,88,0.00,,,0.00,Wunderground v.1.15,2013-03-01 05:56:00,
2013-03-01 01:01:00,28.3,25.2,30.02,North,5,2.0,5.0,88,0.00,,,0.00,Wunderground v.1.15,2013-03-01 06:01:00,
2013-03-01 01:06:00,28.3,25.2,30.02,NNW,329,6.0,8.0,88,0.00,,,0.00,Wunderground v.1.15,2013-03-01 06:06:00,
2013-03-01 01:11:00,28.3,25.2,30.03,NNW,333,3.0,6.0,88,0.00,,,0.00,Wunderground v.1.15,2013-03-01 06:11:00,
2013-03-01 01:16:00,28.2,25.1,30.03,NW,321,3.0,9.0,88,0.00,,,0.00,Wunderground v.1.15,2013-03-01 06:16:00,
2013-03-01 01:21:00,28.2,25.1,30.03,NNW,329,5.0,9.0,88,0.00,,,0.00,Wunderground v.1.15,2013-03-01 06:21:00,
2013-03-01 01:26:00,28.3,25.2,30.03,NW,323,3.0,9.0,88,0.00,,,0.00,Wunderground v.1.15,2013-03-01 06:26:00,
2013-03-01 01:30:00,28.2,25.1,30.03,NNW,348,4.0,8.0,88,0.00,,,0.00,Wunderground v.1.15,2013-03-01 06:30:00,
2013-03-01 01:35:00,28.3,25.2,30.03,NNW,342,2.0,8.0,88,0.00,,,0.00,Wunderground v.1.15,2013-03-01 06:35:00,
2013-03-01 01:40:00,28.3,25.2,30.03,NNE,28,2.0,4.0,88,0.00,,,0.00,Wunderground v.1.15,2013-03-01 06:40:00,
2013-03-01 01:45:00,28.3,25.2,30.03,NNW,334,5.0,12.0,88,0.00,,,0.00,Wunderground v.1.15,2013-03-01 06:45:00,
2013-03-01 01:50:00,28.4,25.0,30.03,NNW,342,7.0,7.0,87,0.00,,,0.00,Wunderground v.1.15,2013-03-01 06:50:00,
2013-03-01 01:55:00,28.3,24.9,30.03,North,360,6.0,12.0,87,0.00,,,0.00,Wunderground v.1.15,2013-03-01 06:55:00,
2013-03-01 02:00:00,28.3,24.9,30.03,North,5,4.0,8.0,87,0.00,,,0.00,Wunderground v.1.15,2013-03-01 07:00:00,
2013-03-01 02:05:00,28.3,24.9,30.03,NNW,333,7.0,11.0,87,0.00,,,0.00,Wunderground v.1.15,2013-03-01 07:05:00,
2013-03-01 02:10:00,28.3,24.9,30.03,North,360,2.0,5.0,87,0.00,,,0.00,Wunderground v.1.15,2013-03-01 07:10:00,
2013-03-01 02:15:00,28.3,24.9,30.03,North,349,3.0,9.0,87,0.00,,,0.00,Wunderground v.1.15,2013-03-01 07:15:00,
2013-03-01 02:20:00,28.3,24.6,30.03,North,360,7.0,11.0,86,0.00,,,0.00,Wunderground v.1.15,2013-03-01 07:20:00,
2013-03-01 02:25:00,28.3,24.6,30.03,NW,319,7.0,12.0,86,0.00,,,0.00,Wunderground v.1.15,2013-03-01 07:25:00,
2013-03-01 02:30:00,28.3,24.6,30.03,NNW,328,3.0,5.0,86,0.00,,,0.00,Wunderground v.1.15,2013-03-01 07:30:00,
2013-03-01 02:35:00,28.3,24.6,30.03,NW,319,4.0,11.0,86,0.00,,,0.00,Wunderground v.1.15,2013-03-01 07:35:00,
2013-03-01 02:40:00,28.2,24.3,30.03,NNE,26,3.0,11.0,85,0.00,,,0.00,Wunderground v.1.15,2013-03-01 07:40:00,
2013-03-01 02:45:00,28.2,24.3,30.04,NNW,340,1.0,11.0,85,0.00,,,0.00,Wunderground v.1.15,2013-03-01 07:45:00,
2013-03-01 02:50:00,28.1,23.9,30.04,NNW,336,10.0,11.0,84,0.00,,,0.00,Wunderground v.1.15,2013-03-01 07:50:00,
2013-03-01 02:55:00,28.1,23.9,30.04,North,355,3.0,12.0,84,0.00,,,0.00,Wunderground v.1.15,2013-03-01 07:55:00,
2013-03-01 03:00:00,28.1,23.9,30.04,North,355,7.0,8.0,84,0.00,,,0.00,Wunderground v.1.15,2013-03-01 08:00:00,
2013-03-01 03:05:00,28.0,23.8,30.03,NW,321,3.0,9.0,84,0.00,,,0.00,Wunderground v.1.15,2013-03-01 08:05:00,
2013-03-01 03:10:00,28.0,23.8,30.04,North,355,5.0,8.0,84,0.00,,,0.00,Wunderground v.1.15,2013-03-01 08:10:00,
2013-03-01 03:15:00,28.0,23.8,30.04,NNW,344,10.0,11.0,84,0.00,,,0.00,Wunderground v.1.15,2013-03-01 08:15:00,
2013-03-01 03:20:00,27.9,23.7,30.04,NNW,329,6.0,8.0,84,0.00,,,0.00,Wunderground v.1.15,2013-03-01 08:20:00,
2013-03-01 03:25:00,27.9,23.7,30.04,NNW,344,2.0,8.0,84,0.00,,,0.00,Wunderground v.1.15,2013-03-01 08:25:00,
2013-03-01 03:30:00,27.9,23.7,30.03,NNE,27,6.0,11.0,84,0.00,,,0.00,Wunderground v.1.15,2013-03-01 08:30:00,
2013-03-01 03:35:00,27.9,23.7,30.04,NE,43,3.0,13.0,84,0.00,,,0.00,Wunderground v.1.15,2013-03-01 08:35:00,
2013-03-01 03:40:00,27.8,23.6,30.03,NNW,327,4.0,5.0,84,0.00,,,0.00,Wunderground v.1.15,2013-03-01 08:40:00,
2013-03-01 03:45:00,27.8,23.6,30.04,NNW,344,10.0,12.0,84,0.00,,,0.00,Wunderground v.1.15,2013-03-01 08:45:00,
2013-03-01 03:50:00,27.7,23.2,30.03,NNW,348,7.0,12.0,83,0.00,,,0.00,Wunderground v.1.15,2013-03-01 08:50:00,
2013-03-01 03:55:00,27.8,23.3,30.03,NNW,333,3.0,12.0,83,0.00,,,0.00,Wunderground v.1.15,2013-03-01 08:55:00,
2013-03-01 04:00:00,27.7,23.2,30.04,NNW,336,2.0,5.0,83,0.00,,,0.00,Wunderground v.1.15,2013-03-01 09:00:00,
2013-03-01 04:05:00,27.7,23.5,30.04,NNW,342,1.0,14.0,84,0.00,,,0.00,Wunderground v.1.15,2013-03-01 09:05:00,
2013-03-01 04:10:00,27.7,23.5,30.04,North,355,5.0,8.0,84,0.00,,,0.00,Wunderground v.1.15,2013-03-01 09:10:00,
2013-03-01 04:15:00,27.6,23.4,30.04,NW,324,5.0,9.0,84,0.00,,,0.00,Wunderground v.1.15,2013-03-01 09:15:00,
2013-03-01 04:20:00,27.6,23.4,30.04,North,5,2.0,4.0,84,0.00,,,0.00,Wunderground v.1.15,2013-03-01 09:20:00,
2013-03-01 04:25:00,27.6,23.4,30.04,North,5,2.0,6.0,84,0.00,,,0.00,Wunderground v.1.15,2013-03-01 09:25:00,
2013-03-01 04:30:00,27.6,23.4,30.04,NNW,337,7.0,8.0,84,0.00,,,0.00,Wunderground v.1.15,2013-03-01 09:30:00,
2013-03-01 04:35:00,27.5,23.3,30.04,North,351,5.0,8.0,84,0.00,,,0.00,Wunderground v.1.15,2013-03-01 09:35:00,
2013-03-01 04:40:00,27.5,23.6,30.05,ENE,70,2.0,7.0,85,0.00,,,0.00,Wunderground v.1.15,2013-03-01 09:40:00,
2013-03-01 04:45:00,27.5,23.6,30.05,North,10,5.0,11.0,85,0.00,,,0.00,Wunderground v.1.15,2013-03-01 09:45:00,
2013-03-01 04:50:00,27.5,23.6,30.05,NW,322,6.0,10.0,85,0.00,,,0.00,Wunderground v.1.15,2013-03-01 09:50:00,
2013-03-01 04:55:00,27.5,23.6,30.05,NNW,348,1.0,10.0,85,0.00,,,0.00,Wunderground v.1.15,2013-03-01 09:55:00,
2013-03-01 05:00:00,27.5,23.6,30.05,NW,311,4.0,8.0,85,0.00,,,0.00,Wunderground v.1.15,2013-03-01 10:00:00,
2013-03-01 05:05:00,27.4,23.2,30.05,NW,315,4.0,10.0,84,0.00,,,0.00,Wunderground v.1.15,2013-03-01 10:05:00,
2013-03-01 05:10:00,27.3,22.8,30.05,NNW,346,9.0,14.0,83,0.00,,,0.00,Wunderground v.1.15,2013-03-01 10:10:00,
2013-03-01 05:15:00,27.2,22.7,30.05,ENE,59,4.0,14.0,83,0.00,,,0.00,Wunderground v.1.15,2013-03-01 10:15:00,
2013-03-01 05:20:00,27.2,22.7,30.06,NNW,348,6.0,6.0,83,0.00,,,0.00,Wunderground v.1.15,2013-03-01 10:20:00,
2013-03-01 05:25:00,26.9,22.1,30.06,NE,36,3.0,16.0,82,0.00,,,0.00,Wunderground v.1.15,2013-03-01 10:25:00,
2013-03-01 05:30:00,26.8,22.0,30.06,NE,52,5.0,5.0,82,0.00,,,0.00,Wunderground v.1.15,2013-03-01 10:30:00,
2013-03-01 05:35:00,26.7,21.9,30.06,NNW,339,1.0,12.0,82,0.00,,,0.00,Wunderground v.1.15,2013-03-01 10:35:00,
2013-03-01 05:40:00,26.7,21.9,30.06,NE,36,3.0,8.0,82,0.00,,,0.00,Wunderground v.1.15,2013-03-01 10:40:00,
2013-03-01 05:45:00,26.7,21.9,30.06,NNW,342,0.0,8.0,82,0.00,,,0.00,Wunderground v.1.15,2013-03-01 10:45:00,
2013-03-01 05:50:00,26.7,22.2,30.06,North,11,2.0,4.0,83,0.00,,,0.00,Wunderground v.1.15,2013-03-01 10:50:00,
2013-03-01 05:55:00,26.7,21.9,30.07,NE,51,2.0,11.0,82,0.00,,,0.00,Wunderground v.1.15,2013-03-01 10:55:00,
2013-03-01 06:00:00,26.6,22.1,30.07,NNE,23,0.0,3.0,83,0.00,,,0.00,Wunderground v.1.15,2013-03-01 11:00:00,
2013-03-01 06:05:00,26.7,22.2,30.07,NW,313,3.0,6.0,83,0.00,,,0.00,Wunderground v.1.15,2013-03-01 11:05:00,
2013-03-01 06:10:00,26.6,22.1,30.06,North,355,4.0,5.0,83,0.00,,,0.00,Wunderground v.1.15,2013-03-01 11:10:00,
2013-03-01 06:15:00,26.6,22.1,30.06,NW,324,2.0,8.0,83,0.00,,,0.00,Wunderground v.1.15,2013-03-01 11:15:00,
2013-03-01 06:20:00,26.5,22.3,30.07,North,5,4.0,5.0,84,0.00,,,0.00,Wunderground v.1.15,2013-03-01 11:20:00,
2013-03-01 06:25:00,26.4,22.2,30.06,NW,323,5.0,10.0,84,0.00,,,0.00,Wunderground v.1.15,2013-03-01 11:25:00,
2013-03-01 06:30:00,26.3,22.1,30.07,North,355,4.0,8.0,84,0.00,,,0.00,Wunderground v.1.15,2013-03-01 11:30:00,
2013-03-01 06:35:00,26.1,21.6,30.07,NNW,334,10.0,13.0,83,0.00,,,0.00,Wunderground v.1.15,2013-03-01 11:35:00,
2013-03-01 06:40:00,26.1,21.6,30.07,NNW,342,3.0,5.0,83,0.00,,,0.00,Wunderground v.1.15,2013-03-01 11:40:00,
2013-03-01 06:45:00,26.1,21.6,30.07,North,355,2.0,15.0,83,0.00,,,0.00,Wunderground v.1.15,2013-03-01 11:45:00,
2013-03-01 06:50:00,26.0,21.3,30.07,NNE,23,5.0,5.0,82,0.00,,,0.00,Wunderground v.1.15,2013-03-01 11:50:00,
2013-03-01 06:55:00,26.0,21.5,30.07,NNE,24,6.0,9.0,83,0.00,,,0.00,Wunderground v.1.15,2013-03-01 11:55:00,
2013-03-01 07:00:00,26.0,21.5,30.07,North,5,3.0,9.0,83,0.00,,,0.00,Wunderground v.1.15,2013-03-01 12:00:00,
2013-03-01 07:05:00,25.9,21.4,30.07,North,349,3.0,9.0,83,0.00,,,0.00,Wunderground v.1.15,2013-03-01 12:05:00,
2013-03-01 07:10:00,25.8,21.3,30.07,NNW,347,9.0,14.0,83,0.00,,,0.00,Wunderground v.1.15,2013-03-01 12:10:00,
2013-03-01 07:15:00,25.7,21.3,30.07,North,9,5.0,16.0,83,0.00,,,0.00,Wunderground v.1.15,2013-03-01 12:15:00,
2013-03-01 07:20:00,25.6,21.2,30.08,NW,325,5.0,8.0,83,0.00,,,0.00,Wunderground v.1.15,2013-03-01 12:20:00,
2013-03-01 07:25:00,25.5,21.1,30.08,North,355,4.0,12.0,83,0.00,,,0.00,Wunderground v.1.15,2013-03-01 12:25:00,
2013-03-01 07:30:00,25.5,21.3,30.08,NNW,335,4.0,6.0,84,0.00,,,0.00,Wunderground v.1.15,2013-03-01 12:30:00,
2013-03-01 07:35:00,25.5,21.3,30.08,North,5,3.0,11.0,84,0.00,,,0.00,Wunderground v.1.15,2013-03-01 12:35:00,
2013-03-01 07:40:00,25.4,21.2,30.08,NNW,344,10.0,10.0,84,0.00,,,0.00,Wunderground v.1.15,2013-03-01 12:40:00,
2013-03-01 07:45:00,25.4,21.2,30.09,NW,325,2.0,10.0,84,0.00,,,0.00,Wunderground v.1.15,2013-03-01 12:45:00,
2013-03-01 07:50:00,25.4,21.2,30.09,North,355,10.0,10.0,84,0.00,,,0.00,Wunderground v.1.15,2013-03-01 12:50:00,
2013-03-01 07:55:00,25.4,21.2,30.09,NNW,331,1.0,14.0,84,0.00,,,0.00,Wunderground v.1.15,2013-03-01 12:55:00,
2013-03-01 08:00:00,25.4,21.5,30.10,NNW,333,2.0,7.0,85,0.00,,,0.00,Wunderground v.1.15,2013-03-01 13:00:00,
2013-03-01 08:05:00,25.4,21.5,30.10,NW,316,4.0,11.0,85,0.00,,,0.00,Wunderground v.1.15,2013-03-01 13:05:00,
2013-03-01 08:10:00,25.4,21.5,30.10,NNW,343,4.0,5.0,85,0.00,,,0.00,Wunderground v.1.15,2013-03-01 13:10:00,
2013-03-01 08:15:00,25.4,21.5,30.10,NW,317,8.0,8.0,85,0.00,,,0.00,Wunderground v.1.15,2013-03-01 13:15:00,
2013-03-01 08:20:00,25.2,21.0,30.10,North,5,8.0,8.0,84,0.00,,,0.00,Wunderground v.1.15,2013-03-01 13:20:00,
2013-03-01 08:25:00,25.2,21.0,30.11,NW,317,6.0,13.0,84,0.00,,,0.00,Wunderground v.1.15,2013-03-01 13:25:00,
2013-03-01 08:30:00,25.2,21.0,30.11,NNW,334,11.0,11.0,84,0.00,,,0.00,Wunderground v.1.15,2013-03-01 13:30:00,
2013-03-01 08:35:00,25.2,20.8,30.11,NNW,346,6.0,14.0,83,0.00,,,0.00,Wunderground v.1.15,2013-03-01 13:35:00,
2013-03-01 08:40:00,25.1,20.7,30.11,NE,37,3.0,7.0,83,0.00,,,0.00,Wunderground v.1.15,2013-03-01 13:40:00,
2013-03-01 08:45:00,25.0,20.6,30.11,NE,39,3.0,13.0,83,0.00,,,0.00,Wunderground v.1.15,2013-03-01 13:45:00,
2013-03-01 08:50:00,25.0,20.8,30.11,North,350,4.0,6.0,84,0.00,,,0.00,Wunderground v.1.15,2013-03-01 13:50:00,
2013-03-01 08:55:00,25.1,20.9,30.11,North,360,7.0,9.0,84,0.00,,,0.00,Wunderground v.1.15,2013-03-01 13:55:00,
2013-03-01 09:00:00,25.2,21.0,30.12,North,351,5.0,8.0,84,0.00,,,0.00,Wunderground v.1.15,2013-03-01 14:00:00,
2013-03-01 09:05:00,25.1,20.9,30.11,North,355,2.0,8.0,84,0.00,,,0.00,Wunderground v.1.15,2013-03-01 14:05:00,
2013-03-01 09:10:00,25.2,21.3,30.11,NW,319,2.0,6.0,85,0.00,,,0.00,Wunderground v.1.15,2013-03-01 14:10:00,
2013-03-01 09:15:00,25.1,21.2,30.11,NNW,348,3.0,15.0,85,0.00,,,0.00,Wunderground v.1.15,2013-03-01 14:15:00,
2013-03-01 09:20:00,24.9,21.0,30.12,NNW,347,6.0,13.0,85,0.00,,,0.00,Wunderground v.1.15,2013-03-01 14:20:00,
2013-03-01 09:25:00,24.9,21.0,30.12,NNW,343,4.0,13.0,85,0.00,,,0.00,Wunderground v.1.15,2013-03-01 14:25:00,
2013-03-01 09:30:00,24.8,20.9,30.12,NNW,344,7.0,8.0,85,0.00,,,0.00,Wunderground v.1.15,2013-03-01 14:30:00,
2013-03-01 09:35:00,24.8,20.7,30.12,NNW,346,3.0,13.0,84,0.00,,,0.00,Wunderground v.1.15,2013-03-01 14:35:00,
2013-03-01 09:40:00,24.9,20.8,30.12,NNW,340,5.0,7.0,84,0.00,,,0.00,Wunderground v.1.15,2013-03-01 14:40:00,
2013-03-01 09:45:00,25.1,20.9,30.12,NNE,16,5.0,9.0,84,0.00,,,0.00,Wunderground v.1.15,2013-03-01 14:45:00,
2013-03-01 09:50:00,25.1,20.9,30.12,NNW,332,6.0,12.0,84,0.00,,,0.00,Wunderground v.1.15,2013-03-01 14:50:00,
2013-03-01 09:55:00,25.1,20.7,30.12,NNW,342,4.0,15.0,83,0.00,,,0.00,Wunderground v.1.15,2013-03-01 14:55:00,
2013-03-01 10:00:00,25.2,20.5,30.12,North,360,3.0,5.0,82,0.00,,,0.00,Wunderground v.1.15,2013-03-01 15:00:00,
2013-03-01 10:05:00,25.4,21.0,30.12,NW,313,3.0,9.0,83,0.00,,,0.00,Wunderground v.1.15,2013-03-01 15:05:00,
2013-03-01 10:10:00,25.2,21.0,30.12,NNW,330,7.0,9.0,84,0.00,,,0.00,Wunderground v.1.15,2013-03-01 15:10:00,
2013-03-01 10:15:00,24.9,21.0,30.12,North,351,5.0,12.0,85,0.00,,,0.00,Wunderground v.1.15,2013-03-01 15:15:00,
2013-03-01 10:20:00,24.9,21.3,30.12,NW,325,6.0,9.0,86,0.00,,,0.00,Wunderground v.1.15,2013-03-01 15:20:00,
2013-03-01 10:25:00,24.8,20.9,30.12,North,351,8.0,15.0,85,0.00,,,0.00,Wunderground v.1.15,2013-03-01 15:25:00,
2013-03-01 10:30:00,24.8,21.2,30.13,NNE,31,4.0,8.0,86,0.00,,,0.00,Wunderground v.1.15,2013-03-01 15:30:00,
2013-03-01 10:35:00,24.8,20.9,30.13,North,350,4.0,10.0,85,0.00,,,0.00,Wunderground v.1.15,2013-03-01 15:35:00,
2013-03-01 10:40:00,24.7,20.8,30.13,NNE,17,9.0,10.0,85,0.00,,,0.00,Wunderground v.1.15,2013-03-01 15:40:00,
2013-03-01 10:45:00,24.7,21.1,30.13,North,360,3.0,12.0,86,0.00,,,0.00,Wunderground v.1.15,2013-03-01 15:45:00,
2013-03-01 10:50:00,24.7,20.8,30.13,NNE,27,4.0,6.0,85,0.00,,,0.00,Wunderground v.1.15,2013-03-01 15:50:00,
2013-03-01 10:55:00,24.8,21.2,30.13,NNE,28,9.0,10.0,86,0.00,,,0.00,Wunderground v.1.15,2013-03-01 15:55:00,
2013-03-01 11:00:00,24.9,21.3,30.13,WNW,296,3.0,5.0,86,0.00,,,0.00,Wunderground v.1.15,2013-03-01 16:00:00,
2013-03-01 11:05:00,24.9,21.0,30.13,NW,326,5.0,13.0,85,0.00,,,0.00,Wunderground v.1.15,2013-03-01 16:05:00,
2013-03-01 11:10:00,25.0,21.1,30.13,NW,325,7.0,7.0,85,0.00,,,0.00,Wunderground v.1.15,2013-03-01 16:10:00,
2013-03-01 11:15:00,24.9,20.8,30.13,NNW,340,7.0,11.0,84,0.00,,,0.00,Wunderground v.1.15,2013-03-01 16:15:00,
2013-03-01 11:20:00,25.0,21.1,30.13,NW,317,4.0,6.0,85,0.00,,,0.00,Wunderground v.1.15,2013-03-01 16:20:00,
2013-03-01 11:25:00,25.1,21.2,30.13,North,11,4.0,9.0,85,0.00,,,0.00,Wunderground v.1.15,2013-03-01 16:25:00,
2013-03-01 11:30:00,24.9,21.0,30.14,NW,322,8.0,8.0,85,0.00,,,0.00,Wunderground v.1.15,2013-03-01 16:30:00,
2013-03-01 11:35:00,24.9,21.0,30.14,NNE,30,7.0,11.0,85,0.00,,,0.00,Wunderground v.1.15,2013-03-01 16:35:00,
2013-03-01 11:40:00,24.8,20.9,30.14,NW,316,4.0,6.0,85,0.00,,,0.00,Wunderground v.1.15,2013-03-01 16:40:00,
2013-03-01 11:45:00,24.8,20.9,30.13,NNW,327,10.0,11.0,85,0.00,,,0.00,Wunderground v.1.15,2013-03-01 16:45:00,
2013-03-01 11:50:00,24.9,21.0,30.13,WNW,297,1.0,5.0,85,0.00,,,0.00,Wunderground v.1.15,2013-03-01 16:50:00,
2013-03-01 11:55:00,24.9,21.0,30.14,North,360,3.0,11.0,85,0.00,,,0.00,Wunderground v.1.15,2013-03-01 16:55:00,
2013-03-01 12:00:00,25.2,21.3,30.14,NNW,338,3.0,11.0,85,0.00,,,0.00,Wunderground v.1.15,2013-03-01 17:00:00,
2013-03-01 12:05:00,25.1,21.2,30.14,North,360,2.0,11.0,85,0.00,,,0.00,Wunderground v.1.15,2013-03-01 17:05:00,
2013-03-01 12:10:00,25.0,21.1,30.14,NE,46,4.0,11.0,85,0.00,,,0.00,Wunderground v.1.15,2013-03-01 17:10:00,
2013-03-01 12:15:00,24.9,21.0,30.14,NNW,331,4.0,9.0,85,0.00,,,0.00,Wunderground v.1.15,2013-03-01 17:15:00,
2013-03-01 12:20:00,24.7,20.8,30.14,NNW,342,9.0,13.0,85,0.00,,,0.00,Wunderground v.1.15,2013-03-01 17:20:00,
2013-03-01 12:25:00,24.6,21.0,30.14,NNW,342,5.0,10.0,86,0.00,,,0.00,Wunderground v.1.15,2013-03-01 17:25:00,
2013-03-01 12:29:00,24.6,21.0,30.14,NNW,338,9.0,10.0,86,0.00,,,0.00,Wunderground v.1.15,2013-03-01 17:29:00,
2013-03-01 12:34:00,24.5,20.6,30.14,NW,316,5.0,11.0,85,0.00,,,0.00,Wunderground v.1.15,2013-03-01 17:34:00,
2013-03-01 12:39:00,24.5,20.9,30.14,NNW,331,6.0,11.0,86,0.00,,,0.00,Wunderground v.1.15,2013-03-01 17:39:00,
2013-03-01 12:44:00,24.6,21.0,30.14,NNE,15,6.0,9.0,86,0.00,,,0.00,Wunderground v.1.15,2013-03-01 17:44:00,
2013-03-01 12:49:00,24.6,20.7,30.13,NW,319,7.0,11.0,85,0.00,,,0.00,Wunderground v.1.15,2013-03-01 17:49:00,
2013-03-01 12:54:00,24.5,20.6,30.13,NW,308,6.0,13.0,85,0.00,,,0.00,Wunderground v.1.15,2013-03-01 17:54:00,
2013-03-01 12:59:00,24.5,20.6,30.13,NNW,343,10.0,14.0,85,0.00,,,0.00,Wunderground v.1.15,2013-03-01 17:59:00,
2013-03-01 13:04:00,24.5,20.6,30.13,North,355,2.0,11.0,85,0.00,,,0.00,Wunderground v.1.15,2013-03-01 18:04:00,
2013-03-01 13:09:00,24.7,20.8,30.13,NW,323,3.0,11.0,85,0.00,,,0.00,Wunderground v.1.15,2013-03-01 18:09:00,
2013-03-01 13:14:00,24.8,20.9,30.13,NNE,32,2.0,10.0,85,0.00,,,0.00,Wunderground v.1.15,2013-03-01 18:14:00,
2013-03-01 13:19:00,24.9,21.0,30.13,NNE,12,4.0,10.0,85,0.00,,,0.00,Wunderground v.1.15,2013-03-01 18:19:00,
2013-03-01 13:24:00,24.9,21.0,30.13,WNW,297,4.0,10.0,85,0.00,,,0.00,Wunderground v.1.15,2013-03-01 18:24:00,
2013-03-01 13:29:00,24.9,21.3,30.13,NNW,334,7.0,10.0,86,0.00,,,0.00,Wunderground v.1.15,2013-03-01 18:29:00,
2013-03-01 13:34:00,24.9,21.0,30.13,NNW,331,8.0,12.0,85,0.00,,,0.00,Wunderground v.1.15,2013-03-01 18:34:00,
2013-03-01 13:39:00,25.0,21.1,30.13,NNW,337,7.0,12.0,85,0.00,,,0.00,Wunderground v.1.15,2013-03-01 18:39:00,
2013-03-01 13:44:00,25.0,21.1,30.13,NNW,336,1.0,12.0,85,0.00,,,0.00,Wunderground v.1.15,2013-03-01 18:44:00,
2013-03-01 13:49:00,25.1,21.2,30.13,North,355,3.0,12.0,85,0.00,,,0.00,Wunderground v.1.15,2013-03-01 18:49:00,
2013-03-01 13:54:00,25.1,21.2,30.13,North,355,4.0,10.0,85,0.00,,,0.00,Wunderground v.1.15,2013-03-01 18:54:00,
2013-03-01 13:59:00,25.2,21.3,30.12,North,11,8.0,12.0,85,0.00,,,0.00,Wunderground v.1.15,2013-03-01 18:59:00,
2013-03-01 14:04:00,25.3,21.4,30.12,North,355,5.0,9.0,85,0.00,,,0.00,Wunderground v.1.15,2013-03-01 19:04:00,
2013-03-01 14:09:00,25.4,21.5,30.12,NW,320,4.0,9.0,85,0.00,,,0.00,Wunderground v.1.15,2013-03-01 19:09:00,
2013-03-01 14:14:00,25.4,21.5,30.12,NNW,347,5.0,8.0,85,0.00,,,0.00,Wunderground v.1.15,2013-03-01 19:14:00,
2013-03-01 14:19:00,25.3,21.4,30.12,NNW,331,4.0,13.0,85,0.00,,,0.00,Wunderground v.1.15,2013-03-01 19:19:00,
2013-03-01 14:24:00,25.1,21.2,30.12,NNW,340,3.0,10.0,85,0.00,,,0.00,Wunderground v.1.15,2013-03-01 19:24:00,
2013-03-01 14:29:00,25.1,21.5,30.12,North,355,5.0,11.0,86,0.00,,,0.00,Wunderground v.1.15,2013-03-01 19:29:00,
2013-03-01 14:34:00,24.9,21.0,30.12,NNE,14,3.0,11.0,85,0.00,,,0.00,Wunderground v.1.15,2013-03-01 19:34:00,
2013-03-01 14:39:00,24.8,20.9,30.12,NNW,340,5.0,12.0,85,0.00,,,0.00,Wunderground v.1.15,2013-03-01 19:39:00,
2013-03-01 14:44:00,24.8,21.2,30.12,North,350,5.0,13.0,86,0.00,,,0.00,Wunderground v.1.15,2013-03-01 19:44:00,
2013-03-01 14:49:00,24.7,21.1,30.12,NW,305,8.0,14.0,86,0.00,,,0.00,Wunderground v.1.15,2013-03-01 19:49:00,
2013-03-01 14:54:00,24.7,21.1,30.12,NW,311,2.0,9.0,86,0.00,,,0.00,Wunderground v.1.15,2013-03-01 19:54:00,
2013-03-01 14:59:00,24.8,21.2,30.12,WNW,302,4.0,10.0,86,0.00,,,0.00,Wunderground v.1.15,2013-03-01 19:59:00,
2013-03-01 15:04:00,24.9,21.3,30.12,North,5,5.0,10.0,86,0.00,,,0.00,Wunderground v.1.15,2013-03-01 20:04:00,
2013-03-01 15:09:00,24.8,20.9,30.12,NNW,346,4.0,12.0,85,0.00,,,0.00,Wunderground v.1.15,2013-03-01 20:09:00,
2013-03-01 15:14:00,24.8,21.2,30.12,NNW,342,4.0,11.0,86,0.00,,,0.00,Wunderground v.1.15,2013-03-01 20:14:00,
2013-03-01 15:19:00,24.7,20.8,30.12,North,355,3.0,13.0,85,0.00,,,0.00,Wunderground v.1.15,2013-03-01 20:19:00,
2013-03-01 15:24:00,24.7,21.1,30.12,NNW,348,5.0,11.0,86,0.00,,,0.00,Wunderground v.1.15,2013-03-01 20:24:00,
2013-03-01 15:29:00,24.7,21.1,30.12,North,360,8.0,12.0,86,0.00,,,0.00,Wunderground v.1.15,2013-03-01 20:29:00,
2013-03-01 15:34:00,24.6,21.0,30.12,NW,321,2.0,10.0,86,0.00,,,0.00,Wunderground v.1.15,2013-03-01 20:34:00,
2013-03-01 15:39:00,24.7,21.1,30.13,North,355,2.0,10.0,86,0.00,,,0.00,Wunderground v.1.15,2013-03-01 20:39:00,
2013-03-01 15:44:00,24.6,21.0,30.13,NW,321,4.0,10.0,86,0.00,,,0.00,Wunderground v.1.15,2013-03-01 20:44:00,
2013-03-01 15:49:00,24.5,20.6,30.13,NNW,330,4.0,10.0,85,0.00,,,0.00,Wunderground v.1.15,2013-03-01 20:49:00,
2013-03-01 15:54:00,24.5,20.9,30.13,NNE,23,4.0,9.0,86,0.00,,,0.00,Wunderground v.1.15,2013-03-01 20:54:00,
2013-03-01 15:59:00,24.5,20.9,30.13,NNW,328,6.0,10.0,86,0.00,,,0.00,Wunderground v.1.15,2013-03-01 20:59:00,
2013-03-01 16:04:00,24.5,20.9,30.13,NW,321,6.0,10.0,86,0.00,,,0.00,Wunderground v.1.15,2013-03-01 21:04:00,
2013-03-01 16:09:00,24.4,20.8,30.13,NW,323,8.0,13.0,86,0.00,,,0.00,Wunderground v.1.15,2013-03-01 21:09:00,
2013-03-01 16:14:00,24.4,20.8,30.13,NNW,332,3.0,9.0,86,0.00,,,0.00,Wunderground v.1.15,2013-03-01 21:14:00,
2013-03-01 16:19:00,24.4,20.8,30.13,NNW,340,9.0,9.0,86,0.00,,,0.00,Wunderground v.1.15,2013-03-01 21:19:00,
2013-03-01 16:24:00,24.4,20.8,30.13,NW,325,4.0,14.0,86,0.00,,,0.00,Wunderground v.1.15,2013-03-01 21:24:00,
2013-03-01 16:29:00,24.5,20.9,30.13,NNW,334,3.0,14.0,86,0.00,,,0.00,Wunderground v.1.15,2013-03-01 21:29:00,
2013-03-01 16:34:00,24.5,20.9,30.13,North,360,8.0,10.0,86,0.00,,,0.00,Wunderground v.1.15,2013-03-01 21:34:00,
2013-03-01 16:39:00,24.6,21.0,30.13,NW,315,6.0,15.0,86,0.00,,,0.00,Wunderground v.1.15,2013-03-01 21:39:00,
2013-03-01 16:44:00,24.7,21.1,30.13,NW,309,3.0,10.0,86,0.00,,,0.00,Wunderground v.1.15,2013-03-01 21:44:00,
2013-03-01 16:49:00,24.8,21.2,30.13,North,360,1.0,10.0,86,0.00,,,0.00,Wunderground v.1.15,2013-03-01 21:49:00,
2013-03-01 16:54:00,24.9,21.3,30.13,North,9,2.0,10.0,86,0.00,,,0.00,Wunderground v.1.15,2013-03-01 21:54:00,
2013-03-01 16:59:00,24.9,21.3,30.13,NNW,336,4.0,15.0,86,0.00,,,0.00,Wunderground v.1.15,2013-03-01 21:59:00,
2013-03-01 17:04:00,24.9,21.3,30.14,NNW,334,5.0,11.0,86,0.00,,,0.00,Wunderground v.1.15,2013-03-01 22:04:00,
2013-03-01 17:09:00,25.0,21.4,30.14,North,350,3.0,11.0,86,0.00,,,0.00,Wunderground v.1.15,2013-03-01 22:09:00,
2013-03-01 17:14:00,24.9,21.3,30.14,NW,326,5.0,9.0,86,0.00,,,0.00,Wunderground v.1.15,2013-03-01 22:14:00,
2013-03-01 17:19:00,24.8,21.2,30.14,NW,326,5.0,10.0,86,0.00,,,0.00,Wunderground v.1.15,2013-03-01 22:19:00,
2013-03-01 17:24:00,24.8,21.2,30.14,NNW,340,3.0,9.0,86,0.00,,,0.00,Wunderground v.1.15,2013-03-01 22:24:00,
2013-03-01 17:29:00,24.8,20.9,30.14,NNW,343,7.0,12.0,85,0.00,,,0.00,Wunderground v.1.15,2013-03-01 22:29:00,
2013-03-01 17:34:00,24.8,21.2,30.14,NW,324,4.0,8.0,86,0.00,,,0.00,Wunderground v.1.15,2013-03-01 22:34:00,
2013-03-01 17:39:00,24.8,21.2,30.14,NNE,28,5.0,13.0,86,0.00,,,0.00,Wunderground v.1.15,2013-03-01 22:39:00,
2013-03-01 17:44:00,24.9,21.3,30.14,NNW,346,5.0,13.0,86,0.00,,,0.00,Wunderground v.1.15,2013-03-01 22:44:00,
2013-03-01 17:49:00,24.9,21.3,30.14,NNW,334,3.0,13.0,86,0.00,,,0.00,Wunderground v.1.15,2013-03-01 22:49:00,
2013-03-01 17:54:00,25.0,21.4,30.14,North,355,2.0,8.0,86,0.00,,,0.00,Wunderground v.1.15,2013-03-01 22:54:00,
2013-03-01 17:59:00,24.9,21.0,30.14,NNW,340,5.0,11.0,85,0.00,,,0.00,Wunderground v.1.15,2013-03-01 22:59:00,
2013-03-01 18:04:00,24.8,21.2,30.15,North,11,4.0,8.0,86,0.00,,,0.00,Wunderground v.1.15,2013-03-01 23:04:00,
2013-03-01 18:09:00,24.7,21.1,30.15,NW,319,3.0,9.0,86,0.00,,,0.00,Wunderground v.1.15,2013-03-01 23:09:00,
2013-03-01 18:14:00,24.7,21.1,30.15,NNW,333,5.0,9.0,86,0.00,,,0.00,Wunderground v.1.15,2013-03-01 23:14:00,
2013-03-01 18:19:00,24.8,21.5,30.15,NNW,332,4.0,9.0,87,0.00,,,0.00,Wunderground v.1.15,2013-03-01 23:19:00,
2013-03-01 18:24:00,24.7,21.1,30.15,North,5,4.0,7.0,86,0.00,,,0.00,Wunderground v.1.15,2013-03-01 23:24:00,
2013-03-01 18:29:00,24.8,21.2,30.15,North,360,5.0,8.0,86,0.00,,,0.00,Wunderground v.1.15,2013-03-01 23:29:00,
2013-03-01 18:34:00,24.8,21.5,30.16,NNW,331,5.0,6.0,87,0.00,,,0.00,Wunderground v.1.15,2013-03-01 23:34:00,
2013-03-01 18:39:00,24.7,21.1,30.16,NNW,332,5.0,8.0,86,0.00,,,0.00,Wunderground v.1.15,2013-03-01 23:39:00,
2013-03-01 18:44:00,24.7,21.4,30.16,NW,326,3.0,7.0,87,0.00,,,0.00,Wunderground v.1.15,2013-03-01 23:44:00,
2013-03-01 18:49:00,24.8,21.5,30.16,North,355,3.0,7.0,87,0.00,,,0.00,Wunderground v.1.15,2013-03-01 23:49:00,
2013-03-01 18:54:00,24.9,21.3,30.16,NE,56,5.0,10.0,86,0.00,,,0.00,Wunderground v.1.15,2013-03-01 23:54:00,
2013-03-01 18:59:00,25.0,21.1,30.16,NNW,327,5.0,10.0,85,0.00,,,0.00,Wunderground v.1.15,2013-03-01 23:59:00,
2013-03-01 19:04:00,25.0,20.8,30.16,NNW,347,5.0,12.0,84,0.00,,,0.00,Wunderground v.1.15,2013-03-02 00:04:00,
2013-03-01 19:09:00,25.1,20.9,30.16,NW,318,8.0,12.0,84,0.00,,,0.00,Wunderground v.1.15,2013-03-02 00:09:00,
2013-03-01 19:14:00,25.1,20.9,30.16,NNE,21,4.0,10.0,84,0.00,,,0.00,Wunderground v.1.15,2013-03-02 00:14:00,
2013-03-01 19:19:00,25.0,21.1,30.16,NNE,23,2.0,10.0,85,0.00,,,0.00,Wunderground v.1.15,2013-03-02 00:19:00,
2013-03-01 19:24:00,25.1,20.9,30.17,NE,46,3.0,14.0,84,0.00,,,0.00,Wunderground v.1.15,2013-03-02 00:24:00,
2013-03-01 19:29:00,25.0,21.1,30.16,NNW,327,7.0,14.0,85,0.00,,,0.00,Wunderground v.1.15,2013-03-02 00:29:00,
2013-03-01 19:34:00,25.0,21.1,30.17,North,360,6.0,9.0,85,0.00,,,0.00,Wunderground v.1.15,2013-03-02 00:34:00,
2013-03-01 19:39:00,25.0,21.1,30.17,NNE,32,5.0,9.0,85,0.00,,,0.00,Wunderground v.1.15,2013-03-02 00:39:00,
2013-03-01 19:44:00,25.1,21.2,30.17,NNW,332,4.0,9.0,85,0.00,,,0.00,Wunderground v.1.15,2013-03-02 00:44:00,
2013-03-01 19:49:00,25.0,20.8,30.17,NW,318,3.0,12.0,84,0.00,,,0.00,Wunderground v.1.15,2013-03-02 00:49:00,
2013-03-01 19:54:00,25.0,20.8,30.17,NNE,25,1.0,10.0,84,0.00,,,0.00,Wunderground v.1.15,2013-03-02 00:54:00,
2013-03-01 19:59:00,25.0,20.8,30.17,NNE,21,1.0,10.0,84,0.00,,,0.00,Wunderground v.1.15,2013-03-02 00:59:00,
2013-03-01 20:04:00,24.9,20.8,30.17,NNW,329,2.0,11.0,84,0.00,,,0.00,Wunderground v.1.15,2013-03-02 01:04:00,
2013-03-01 20:09:00,24.9,20.8,30.17,NNW,331,2.0,11.0,84,0.00,,,0.00,Wunderground v.1.15,2013-03-02 01:09:00,
2013-03-01 20:14:00,25.0,20.8,30.17,NW,323,3.0,10.0,84,0.00,,,0.00,Wunderground v.1.15,2013-03-02 01:14:00,
2013-03-01 20:19:00,24.9,20.8,30.17,NNW,341,3.0,10.0,84,0.00,,,0.00,Wunderground v.1.15,2013-03-02 01:19:00,
2013-03-01 20:24:00,25.0,21.1,30.17,NNW,334,3.0,7.0,85,0.00,,,0.00,Wunderground v.1.15,2013-03-02 01:24:00,
2013-03-01 20:29:00,24.9,21.0,30.17,NNE,13,1.0,9.0,85,0.00,,,0.00,Wunderground v.1.15,2013-03-02 01:29:00,
2013-03-01 20:34:00,24.9,21.0,30.17,NNW,329,3.0,8.0,85,0.00,,,0.00,Wunderground v.1.15,2013-03-02 01:34:00,
2013-03-01 20:39:00,24.9,21.0,30.17,North,349,1.0,8.0,85,0.00,,,0.00,Wunderground v.1.15,2013-03-02 01:39:00,
2013-03-01 20:44:00,24.9,21.0,30.17,NNW,334,1.0,6.0,85,0.00,,,0.00,Wunderground v.1.15,2013-03-02 01:44:00,
2013-03-01 20:49:00,24.9,21.0,30.17,NNE,12,1.0,11.0,85,0.00,,,0.00,Wunderground v.1.15,2013-03-02 01:49:00,
2013-03-01 20:54:00,24.9,21.0,30.17,North,5,7.0,12.0,85,0.00,,,0.00,Wunderground v.1.15,2013-03-02 01:54:00,
2013-03-01 20:59:00,24.9,21.0,30.17,NNW,342,4.0,12.0,85,0.00,,,0.00,Wunderground v.1.15,2013-03-02 01:59:00,
2013-03-01 21:04:00,24.9,21.0,30.17,North,355,5.0,8.0,85,0.00,,,0.00,Wunderground v.1.15,2013-03-02 02:04:00,
2013-03-01 21:09:00,24.9,21.0,30.17,NNW,342,1.0,8.0,85,0.00,,,0.00,Wunderground v.1.15,2013-03-02 02:09:00,
2013-03-01 21:14:00,24.8,21.2,30.17,North,355,1.0,8.0,86,0.00,,,0.00,Wunderground v.1.15,2013-03-02 02:14:00,
2013-03-01 21:19:00,24.8,21.2,30.17,NNE,33,5.0,8.0,86,0.00,,,0.00,Wunderground v.1.15,2013-03-02 02:19:00,
2013-03-01 21:24:00,24.8,21.2,30.18,NW,325,1.0,9.0,86,0.00,,,0.00,Wunderground v.1.15,2013-03-02 02:24:00,
2013-03-01 21:29:00,24.7,20.8,30.18,NNW,335,3.0,13.0,85,0.00,,,0.00,Wunderground v.1.15,2013-03-02 02:29:00,
2013-03-01 21:34:00,24.7,20.8,30.18,NNE,26,2.0,8.0,85,0.00,,,0.00,Wunderground v.1.15,2013-03-02 02:34:00,
2013-03-01 21:39:00,24.6,20.7,30.18,NNW,341,7.0,11.0,85,0.00,,,0.00,Wunderground v.1.15,2013-03-02 02:39:00,
2013-03-01 21:44:00,24.5,20.4,30.18,NNE,32,2.0,11.0,84,0.00,,,0.00,Wunderground v.1.15,2013-03-02 02:44:00,
2013-03-01 21:49:00,24.4,20.3,30.18,NNE,28,4.0,13.0,84,0.00,,,0.00,Wunderground v.1.15,2013-03-02 02:49:00,
2013-03-01 21:54:00,24.4,20.0,30.18,North,5,3.0,10.0,83,0.00,,,0.00,Wunderground v.1.15,2013-03-02 02:54:00,
2013-03-01 21:59:00,24.3,19.9,30.18,NNW,335,7.0,13.0,83,0.00,,,0.00,Wunderground v.1.15,2013-03-02 02:59:00,
2013-03-01 22:04:00,24.3,19.9,30.18,NE,40,2.0,10.0,83,0.00,,,0.00,Wunderground v.1.15,2013-03-02 03:04:00,
2013-03-01 22:09:00,24.3,19.6,30.18,NW,314,3.0,12.0,82,0.00,,,0.00,Wunderground v.1.15,2013-03-02 03:09:00,
2013-03-01 22:14:00,24.4,19.7,30.18,North,5,5.0,15.0,82,0.00,,,0.00,Wunderground v.1.15,2013-03-02 03:14:00,
2013-03-01 22:19:00,24.4,19.7,30.18,North,5,2.0,15.0,82,0.00,,,0.00,Wunderground v.1.15,2013-03-02 03:19:00,
2013-03-01 22:24:00,24.4,20.0,30.18,NNW,331,6.0,12.0,83,0.00,,,0.00,Wunderground v.1.15,2013-03-02 03:24:00,
2013-03-01 22:29:00,24.3,20.2,30.18,North,5,6.0,13.0,84,0.00,,,0.00,Wunderground v.1.15,2013-03-02 03:29:00,
2013-03-01 22:34:00,24.2,20.3,30.17,North,360,5.0,8.0,85,0.00,,,0.00,Wunderground v.1.15,2013-03-02 03:34:00,
2013-03-01 22:39:00,24.2,20.3,30.17,North,350,5.0,8.0,85,0.00,,,0.00,Wunderground v.1.15,2013-03-02 03:39:00,
2013-03-01 22:44:00,24.2,20.3,30.17,NNW,342,4.0,8.0,85,0.00,,,0.00,Wunderground v.1.15,2013-03-02 03:44:00,
2013-03-01 22:49:00,24.2,20.3,30.18,NNE,25,5.0,9.0,85,0.00,,,0.00,Wunderground v.1.15,2013-03-02 03:49:00,
2013-03-01 22:54:00,24.3,20.4,30.17,NNW,339,4.0,5.0,85,0.00,,,0.00,Wunderground v.1.15,2013-03-02 03:54:00,
2013-03-01 22:59:00,24.3,20.2,30.17,NNW,338,2.0,8.0,84,0.00,,,0.00,Wunderground v.1.15,2013-03-02 03:59:00,
2013-03-01 23:04:00,24.3,20.2,30.17,NNW,346,5.0,9.0,84,0.00,,,0.00,Wunderground v.1.15,2013-03-02 04:04:00,
2013-03-01 23:09:00,24.3,20.2,30.17,North,355,1.0,9.0,84,0.00,,,0.00,Wunderground v.1.15,2013-03-02 04:09:00,
2013-03-01 23:14:00,24.3,20.2,30.17,NW,324,3.0,7.0,84,0.00,,,0.00,Wunderground v.1.15,2013-03-02 04:14:00,
2013-03-01 23:19:00,24.3,20.2,30.17,NW,321,5.0,8.0,84,0.00,,,0.00,Wunderground v.1.15,2013-03-02 04:19:00,
2013-03-01 23:24:00,24.3,20.2,30.16,NW,311,1.0,7.0,84,0.00,,,0.00,Wunderground v.1.15,2013-03-02 04:24:00,
2013-03-01 23:29:00,24.3,20.2,30.16,NNW,333,3.0,7.0,84,0.00,,,0.00,Wunderground v.1.15,2013-03-02 04:29:00,
2013-03-01 23:34:00,24.3,20.2,30.16,NNW,341,0.0,7.0,84,0.00,,,0.00,Wunderground v.1.15,2013-03-02 04:34:00,
2013-03-01 23:39:00,24.3,20.2,30.15,NNW,336,4.0,7.0,84,0.00,,,0.00,Wunderground v.1.15,2013-03-02 04:39:00,
2013-03-01 23:44:00,24.3,20.4,30.15,NW,323,6.0,8.0,85,0.00,,,0.00,Wunderground v.1.15,2013-03-02 04:44:00,
2013-03-01 23:49:00,24.3,20.2,30.15,NW,311,5.0,8.0,84,0.00,,,0.00,Wunderground v.1.15,2013-03-02 04:49:00,
2013-03-01 23:54:00,24.3,20.4,30.15,NNW,342,1.0,9.0,85,0.00,,,0.00,Wunderground v.1.15,2013-03-02 04:54:00,
2013-03-01 23:59:00,24.4,20.5,30.15,NNW,327,4.0,9.0,85,0.00,,,0.00,Wunderground v.1.15,2013-03-02 04:59:00,